TimeCDT,TemperatureF,Dew PointF,Humidity,Sea Level PressureIn,VisibilityMPH,Wind Direction,Wind SpeedMPH,Gust SpeedMPH,PrecipitationIn,Events,Conditions,WindDirDegrees,DateUTC
12:13 AM,50.0,46.4,87,29.91,10.0,Calm,Calm,-,N/A,,Clear,0,2013-06-12 05:13:00
12:33 AM,48.2,46.4,93,29.91,10.0,Calm,Calm,-,N/A,,Clear,0,2013-06-12 05:33:00
12:53 AM,48.2,46.4,93,29.90,10.0,Calm,Calm,-,N/A,,Clear,0,2013-06-12 05:53:00
1:13 AM,48.2,46.4,93,29.91,10.0,Calm,Calm,-,N/A,,Clear,0,2013-06-12 06:13:00
1:33 AM,48.2,46.4,93,29.91,10.0,Calm,Calm,-,N/A,,Clear,0,2013-06-12 06:33:00
1:53 AM,46.4,44.6,93,29.90,10.0,Calm,Calm,-,N/A,,Clear,0,2013-06-12 06:53:00
2:13 AM,46.4,42.8,87,29.90,10.0,Calm,Calm,-,N/A,,Clear,0,2013-06-12 07:13:00
2:33 AM,46.4,44.6,93,29.90,10.0,Calm,Calm,-,N/A,,Clear,0,2013-06-12 07:33:00
2:53 AM,46.4,44.6,93,29.90,10.0,Calm,Calm,-,N/A,,Clear,0,2013-06-12 07:53:00
3:13 AM,46.4,44.6,93,29.91,10.0,Calm,Calm,-,N/A,,Clear,0,2013-06-12 08:13:00
3:33 AM,46.4,44.6,93,29.91,10.0,Calm,Calm,-,N/A,,Clear,0,2013-06-12 08:33:00
3:53 AM,44.6,42.8,93,29.90,10.0,Calm,Calm,-,N/A,,Clear,0,2013-06-12 08:53:00
4:13 AM,44.6,42.8,93,29.90,10.0,Calm,Calm,-,N/A,,Clear,0,2013-06-12 09:13:00
4:33 AM,44.6,42.8,93,29.90,10.0,Calm,Calm,-,N/A,,Clear,0,2013-06-12 09:33:00
4:53 AM,44.6,42.8,93,29.91,10.0,Calm,Calm,-,N/A,,Clear,0,2013-06-12 09:53:00
5:13 AM,44.6,42.8,93,29.92,10.0,Calm,Calm,-,N/A,,Clear,0,2013-06-12 10:13:00
5:33 AM,44.6,42.8,93,29.93,10.0,Calm,Calm,-,N/A,,Clear,0,2013-06-12 10:33:00
5:53 AM,42.8,42.8,100,29.92,10.0,Calm,Calm,-,N/A,,Clear,0,2013-06-12 10:53:00
6:13 AM,44.6,42.8,93,29.92,10.0,Calm,Calm,-,N/A,,Clear,0,2013-06-12 11:13:00
6:33 AM,48.2,46.4,93,29.92,10.0,Calm,Calm,-,N/A,,Clear,0,2013-06-12 11:33:00
6:53 AM,51.8,48.2,88,29.91,10.0,Calm,Calm,-,N/A,,Clear,0,2013-06-12 11:53:00
7:13 AM,57.2,51.8,82,29.91,10.0,NE,3.5,-,N/A,,Clear,40,2013-06-12 12:13:00
7:33 AM,60.8,50.0,68,29.91,10.0,NE,3.5,-,N/A,,Clear,50,2013-06-12 12:33:00
7:53 AM,62.6,50.0,63,29.92,10.0,NNE,4.6,-,N/A,,Clear,30,2013-06-12 12:53:00
8:13 AM,64.4,50.0,59,29.93,10.0,NNE,4.6,-,N/A,,Clear,20,2013-06-12 13:13:00
8:33 AM,66.2,48.2,52,29.93,10.0,NNE,4.6,-,N/A,,Clear,30,2013-06-12 13:33:00
8:53 AM,66.2,48.2,52,29.93,10.0,NNE,6.9,-,N/A,,Clear,20,2013-06-12 13:53:00
9:13 AM,68.0,50.0,52,29.93,10.0,NNE,4.6,-,N/A,,Clear,30,2013-06-12 14:13:00
9:33 AM,69.8,48.2,46,29.93,10.0,NNE,9.2,-,N/A,,Clear,30,2013-06-12 14:33:00
9:53 AM,69.8,46.4,43,29.93,10.0,NNE,8.1,-,N/A,,Clear,30,2013-06-12 14:53:00
10:13 AM,71.6,46.4,41,29.93,10.0,North,5.8,-,N/A,,Clear,10,2013-06-12 15:13:00
10:33 AM,71.6,46.4,41,29.92,10.0,NE,9.2,16.1,N/A,,Clear,50,2013-06-12 15:33:00
10:53 AM,71.6,46.4,41,29.92,10.0,North,9.2,-,N/A,,Clear,360,2013-06-12 15:53:00
11:13 AM,71.6,44.6,38,29.92,10.0,North,9.2,-,N/A,,Clear,350,2013-06-12 16:13:00
11:33 AM,73.4,46.4,38,29.93,10.0,NE,4.6,-,N/A,,Clear,50,2013-06-12 16:33:00
11:53 AM,73.4,46.4,38,29.93,10.0,North,5.8,-,N/A,,Clear,350,2013-06-12 16:53:00
12:13 PM,73.4,46.4,38,29.93,10.0,NNW,5.8,-,N/A,,Clear,340,2013-06-12 17:13:00
12:33 PM,73.4,46.4,38,29.93,10.0,North,4.6,-,N/A,,Clear,360,2013-06-12 17:33:00
12:53 PM,75.2,46.4,36,29.92,10.0,NNW,5.8,-,N/A,,Clear,340,2013-06-12 17:53:00
1:13 PM,75.2,44.6,34,29.93,10.0,NNW,5.8,-,N/A,,Clear,330,2013-06-12 18:13:00
1:33 PM,75.2,44.6,34,29.93,10.0,North,4.6,-,N/A,,Scattered Clouds,350,2013-06-12 18:33:00
1:53 PM,73.4,44.6,36,29.93,10.0,NNW,8.1,-,N/A,,Mostly Cloudy,340,2013-06-12 18:53:00
2:13 PM,73.4,44.6,36,29.92,10.0,North,8.1,-,N/A,,Mostly Cloudy,360,2013-06-12 19:13:00
2:33 PM,75.2,44.6,34,29.92,10.0,NW,8.1,17.3,N/A,,Scattered Clouds,310,2013-06-12 19:33:00
2:53 PM,75.2,44.6,34,29.92,10.0,NW,5.8,-,N/A,,Clear,320,2013-06-12 19:53:00
3:13 PM,73.4,44.6,36,29.92,10.0,North,12.7,17.3,N/A,,Scattered Clouds,350,2013-06-12 20:13:00
3:33 PM,73.4,44.6,36,29.92,10.0,North,8.1,-,N/A,,Mostly Cloudy,10,2013-06-12 20:33:00
3:53 PM,73.4,46.4,38,29.92,10.0,North,8.1,18.4,N/A,,Scattered Clouds,10,2013-06-12 20:53:00
4:13 PM,71.6,44.6,38,29.93,10.0,North,8.1,20.7,N/A,,Scattered Clouds,360,2013-06-12 21:13:00
4:33 PM,73.4,44.6,36,29.93,10.0,NNW,6.9,-,N/A,,Scattered Clouds,330,2013-06-12 21:33:00
4:53 PM,71.6,44.6,38,29.93,10.0,North,6.9,18.4,N/A,,Scattered Clouds,350,2013-06-12 21:53:00
5:13 PM,71.6,44.6,38,29.94,10.0,North,6.9,16.1,N/A,,Clear,350,2013-06-12 22:13:00
5:33 PM,71.6,44.6,38,29.94,10.0,North,10.4,17.3,N/A,,Clear,350,2013-06-12 22:33:00
5:53 PM,69.8,44.6,40,29.94,10.0,North,8.1,16.1,N/A,,Scattered Clouds,360,2013-06-12 22:53:00
6:13 PM,69.8,44.6,40,29.94,10.0,North,9.2,-,N/A,,Scattered Clouds,350,2013-06-12 23:13:00
6:33 PM,69.8,44.6,40,29.94,10.0,North,6.9,-,N/A,,Clear,10,2013-06-12 23:33:00
6:53 PM,69.8,44.6,40,29.94,10.0,North,6.9,-,N/A,,Scattered Clouds,350,2013-06-12 23:53:00
7:13 PM,68.0,46.4,46,29.95,10.0,North,4.6,-,N/A,,Clear,360,2013-06-13 00:13:00
7:33 PM,68.0,46.4,46,29.95,10.0,North,3.5,-,N/A,,Clear,360,2013-06-13 00:33:00
7:53 PM,68.0,46.4,46,29.95,10.0,North,6.9,-,N/A,,Clear,360,2013-06-13 00:53:00
8:13 PM,66.2,46.4,49,29.96,10.0,North,4.6,-,N/A,,Clear,360,2013-06-13 01:13:00
8:33 PM,66.2,46.4,49,29.96,10.0,North,3.5,-,N/A,,Clear,360,2013-06-13 01:33:00
8:54 PM,64.4,46.4,52,29.97,10.0,Calm,Calm,-,N/A,,Clear,0,2013-06-13 01:54:00
9:13 PM,62.6,48.2,59,29.98,10.0,North,3.5,-,N/A,,Clear,360,2013-06-13 02:13:00
9:33 PM,60.8,48.2,63,29.99,10.0,Calm,Calm,-,N/A,,Clear,0,2013-06-13 02:33:00
9:53 PM,59.0,48.2,67,30.00,10.0,Calm,Calm,-,N/A,,Clear,0,2013-06-13 02:53:00
10:13 PM,57.2,48.2,72,30.00,10.0,Calm,Calm,-,N/A,,Clear,0,2013-06-13 03:13:00
10:33 PM,55.4,48.2,77,30.01,10.0,Calm,Calm,-,N/A,,Clear,0,2013-06-13 03:33:00
10:53 PM,55.4,46.4,72,30.02,10.0,Calm,Calm,-,N/A,,Clear,0,2013-06-13 03:53:00
11:13 PM,57.2,48.2,72,30.02,10.0,Calm,Calm,-,N/A,,Clear,0,2013-06-13 04:13:00
11:33 PM,55.4,48.2,77,30.02,10.0,North,3.5,-,N/A,,Clear,350,2013-06-13 04:33:00
11:53 PM,55.4,48.2,77,30.02,10.0,Calm,Calm,-,N/A,,Clear,0,2013-06-13 04:53:00